Location: Bonningues
(50.7927°N, 2.0150°E)
Time: 17:15:10
(UTC+00:00)

GP-B - Pass Details

Date: 08 August 2020
Orbit: 631 x 635 km, 89.8° (Epoch: 25 September)

Event Time Altitude Azimuth Distance (km) Brightness Sun altitude
Rises 21:20:06 0° 358° (N) 2,948 7.4 -15.0°
Reaches altitude 10° 21:22:21 10° 355° (N) 2,034 6.6 -15.2°
Maximum altitude 21:26:46 62° 276° (W) 717 3.5 -15.7°
Enters shadow 21:30:40 13° 197° (SSW) 1,824 5.1 -16.1°
